Regional Weather Roundup
Issued by NWS Kansas City/Pleasant Hill, MO

Home | Current Version | Previous Version | Text Only | Print | Product List | Glossary On
Versions: 1 2 3 4 5 6 7 8 9 10 11 12 13 14 15 16 17 18 19 20 21 22 23 24 25 26 27 28 29 30 31 32 33 34 35 36 37 38 39 40 41 42 43 44 45 46 47 48 49 50
000
ASUS43 KEAX 200610
RWREAX

WEATHER ROUNDUP FOR EASTERN KANSAS AND NORTHWEST MISSOURI
NATIONAL WEATHER SERVICE KANSAS CITY/PLEASANT HILL MO
1200 AM CST MON FEB 20 2017

KSZ040-057-103>105-MOZ028-029-037-043-200700-
...KANSAS CITY METROPOLITAN AREA...

CITY           SKY/WX    TMP DP  RH WIND       PRES   REMARKS
K.C. INTL      MOCLDY    62  54  74 S9        29.88S
6HR MIN TEMP:  57; 6HR MAX TEMP:  67;

K.C. DOWNTOWN  PTCLDY    65  55  70 SE9       29.88F
6HR MIN TEMP:  64; 6HR MAX TEMP:  72;

LEES SUMMIT    PTCLDY    63  56  78 SE13      29.90F
6HR MIN TEMP:  63; 6HR MAX TEMP:  70;

OLATHE - IXD   MOCLDY    60  53  77 SE10      29.89S
6HR MIN TEMP:  57; 6HR MAX TEMP:  67;

OLATHE - OJC   CLOUDY    61  55  81 SE12      29.88F
6HR MIN TEMP:  58; 6HR MAX TEMP:  69;

LAWRENCE       CLOUDY    58  54  86 E7        29.87F

$$

MOZ001>008-011>017-020>025-030>033-038>040-044>046-053-054-200700-
...NORTHERN AND CENTRAL MISSOURI...

CITY           SKY/WX    TMP DP  RH WIND       PRES   REMARKS
ST. JOSEPH     MOCLDY    55  53  93 S6        29.87S
6HR MIN TEMP:  53; 6HR MAX TEMP:  69;

WARRENSBURG    CLOUDY    61  54  77 SE12      29.93R
WHITEMAN AFB   MOCLDY    62  62 100 S10       29.93S
6HR MIN TEMP:  62; 6HR MAX TEMP:  71;

CLINTON        MOCLDY    61  55  82 SE6       29.95S
SEDALIA        CLEAR     62  56  80 S14       29.97R
6HR MIN TEMP:  62; 6HR MAX TEMP:  71;

WARSAW         NOT AVBL
CHILLICOTHE      N/A     62  53  72 S7        29.93R
6HR MIN TEMP:  61; 6HR MAX TEMP:  70;

KIRKSVILLE     PTCLDY    55  49  80 S9        29.96S
6HR MIN TEMP:  55; 6HR MAX TEMP:  63;


$$

MOZ041-047>049-056>058-063>065-088>090-097-200700-
...EASTERN AND SOUTHERN MISSOURI...

CITY           SKY/WX    TMP DP  RH WIND       PRES   REMARKS
ST. LOUIS INTL CLOUDY    59  53  80 SE9       30.05F
6HR MIN TEMP:  58; 6HR MAX TEMP:  66;

SPIRIT OF STL  CLOUDY    54  52  93 E3        30.04S
COLUMBIA       CLEAR     61  55  81 S13       29.99F
JEFFERSON CITY CLEAR     61  54  77 SE7       29.99F
ROLLA          CLEAR     58  55  90 S10       30.01F
OSAGE BEACH    CLEAR     60  55  83 SE9       29.99F
SPRINGFIELD    PTCLDY    61  56  83 SE18      29.96F
BRANSON        CLOUDY    57  57 100 SE10      30.01R
JOPLIN         PTCLDY    64  56  75 SE9       29.91F
WEST PLAINS    CLEAR     56  54  93 SE5       30.05F

$$

IAZ060-094-KSZ022-034>040-054-083-096-NEZ052-066-093-200700-
...KANSAS...SOUTHEAST NEBRASKA AND IOWA...

CITY           SKY/WX    TMP DP  RH WIND       PRES   REMARKS
TOPEKA         MOCLDY    57  52  83 E7        29.84F
6HR MIN TEMP:  52; 6HR MAX TEMP:  64;

MANHATTAN      LGT RAIN  62  57  83 S6        29.82S
EMPORIA        CLOUDY    62  58  86 SE14      29.82F
CHANUTE        CLOUDY    65  56  72 SE14      29.87F
WICHITA        TSTM      60  58  92 S14       29.80R
OMAHA          CLOUDY    56  50  80 SE13      29.81F
LINCOLN        CLOUDY    58  53  84 S15       29.78F
FALLS CITY     CLOUDY    51  50  96 E5        29.83F FOG
LAMONI         MOCLDY    60  47  61 S8        29.90S
DES MOINES     CLOUDY    58  46  64 SE9       29.90R

$$




USA.gov is the U.S. government's official web portal to all federal, state and local government web resources and services.